Location: 81360 Arifat, France
(43.7204°N, 2.3408°E)
Time: 13:18:18
(UTC+02:00)

STARLINK-3050 - Pass Details

Date: 29 September 2021
Orbit: 357 x 362 km, 70.0° (Epoch: 18 October)

Event Time Altitude Azimuth Distance (km) Brightness Sun altitude
Rises 07:11:07 0° 163° (SSE) 2,173 6.9 -7.1°
Reaches altitude 10° 07:13:58 10° 131° (SE) 1,337 6.3 -6.6°
Maximum altitude 07:15:15 12° 105° (ESE) 1,214 6.8 -6.4°
Drops below altitude 10° 07:16:33 10° 79° (E) 1,345 7.4 -6.1°
Sets 07:19:26 0° 47° (NE) 2,200 7.6 -5.6°
